User: anonymous   Login
Location: Acequia del Cap
(41.7000°N, 0.6167°E)
Time: 16:21:47
(UTC+00:00)
Language:

Cosmos 1553 Rocket - Orbit

View from above orbital plane
View from above orbital plane
View from above satellite
View from above satellite

Ground track
Ground track

The orbit data is extracted from the following two-line orbital elements,

1 14974U 84046B   20293.21082381  .00000080  00000-0  65164-4 0  9992
2 14974  82.9331 314.6179 0045048 185.0174 244.6502 13.76931540830082
Epoch (UTC): 19 October 2020 05:03:35
Eccentricity: 0.0045048
inclination: 82.9331°
perigee height: 941 km
apogee height: 1008 km
right ascension of ascending node: 314.6179°
argument of perigee: 185.0174°
revolutions per day: 13.76931540
mean anomaly at epoch: 244.6502°
orbit number at epoch: 83008

The dashed part of the orbit path shows where the satellite is in the earth's shadow,  

DLR